This is the latest recevied weather packets stored in our database for station/object WD0REW. If no packets are shown the sender has not sent any weather packets the latest 10 day(s).
| Time | Temp. | Humidity | Pressure | Rain* | Wind** | Luminosity | Snow |
|---|---|---|---|---|---|---|---|
| 1777744838 | 17.22° C | 40% | 1020.9 hPa | 0 mm | - | 875 W/m² | - |
| 1777744537 | 16.67° C | 41% | 1021.2 hPa | 0 mm | - | 164 W/m² | - |
| 1777744234 | 16.67° C | 39% | 1021.2 hPa | 0 mm | - | 470 W/m² | - |
| 1777743931 | 16.67° C | 37% | 1021.3 hPa | 0 mm | - | 932 W/m² | - |
| 1777743627 | 16.67° C | 39% | 1021.5 hPa | 0 mm | - | 884 W/m² | - |
| 1777743325 | 16.67° C | 38% | 1021.5 hPa | 0 mm | - | 906 W/m² | - |
| 1777743023 | 16.67° C | 38% | 1021.4 hPa | 0 mm | - | 263 W/m² | - |
| 1777742720 | 15.56° C | 40% | 1021.5 hPa | 0 mm | - | 859 W/m² | - |
| 1777742415 | 16.11° C | 39% | 1021.3 hPa | 0 mm | - | 270 W/m² | - |
| 1777742111 | 16.67° C | 40% | 1021.4 hPa | 0 mm | - | 918 W/m² | - |
| 1777741809 | 16.67° C | 41% | 1021.4 hPa | 0 mm | - | 852 W/m² | - |
| 1777741505 | 16.67° C | 40% | 1021.7 hPa | 0 mm | - | 814 W/m² | - |
| 1777741202 | 16.67° C | 39% | 1021.4 hPa | 0 mm | - | 808 W/m² | - |
| 1777740899 | 16.67° C | 39% | 1021.6 hPa | 0 mm | - | 787 W/m² | - |
| 1777740596 | 16.67° C | 41% | 1021.5 hPa | 0 mm | - | 787 W/m² | - |
| 1777740292 | 16.67° C | 47% | 1021.5 hPa | 0 mm | - | 771 W/m² | - |
| 1777739989 | 16.67° C | 42% | 1021.4 hPa | 0 mm | - | 765 W/m² | - |
| 1777739685 | 16.11° C | 41% | 1021.5 hPa | 0 mm | - | 770 W/m² | - |
| 1777739383 | 16.11° C | 44% | 1021.3 hPa | 0 mm | - | 763 W/m² | - |
| 1777739079 | 15.56° C | 44% | 1021.3 hPa | 0 mm | - | 745 W/m² | - |
| 1777738777 | 15.56° C | 50% | 1021.6 hPa | 0 mm | - | 739 W/m² | - |
| 1777738472 | 16.11° C | 49% | 1021.4 hPa | 0 mm | - | 651 W/m² | - |
| 1777738171 | 15.56° C | 47% | 1021.3 hPa | 0 mm | - | 711 W/m² | - |
| 1777737868 | 16.11° C | 49% | 1021.4 hPa | 0 mm | - | 700 W/m² | - |
| 1777737567 | 16.11° C | 54% | 1021.4 hPa | 0 mm | - | 689 W/m² | - |
* Rain latest hour (hover to see other rain measurements)
** Current wind speed in m/s (hover to see current wind gust speed)